Probability
10 13 39 42 58 61 65 68 71 71 71 71 74 77 71 65 55 55 55 58 58 58 58 48 45 39 32 29 23 19 19 16 10 6 6 3 6 3 0 0 0 0 0
10 19 39 45 45 52 55 61 61 58 68 68 65 71 68 55 48 52 55 52 55 55 52 48 45 35 32 29 23 23 16 16 16 13 6 6 6 3 0 0 3 0 0
16 23 23 39 45 45 45 48 52 52 52 55 61 58 61 55 52 52 48 48 48 48 48 45 42 35 35 29 26 19 19 16 16 10 6 0 0 0 0 0 0 0 0
16 16 16 35 35 42 45 45 45 39 39 45 45 55 45 48 52 45 45 48 45 45 45 42 42 39 39 32 29 23 19 16 13 10 0 0 0 0 0 0 0 0 0
13 16 23 32 35 35 39 42 39 39 29 35 35 35 35 39 45 42 45 48 39 45 42 42 39 35 32 32 26 23 19 16 10 3 0 0 0 0 0 0 0 0 0
6 16 23 29 29 32 35 39 35 35 29 29 32 35 26 26 35 39 42 42 42 39 29 35 39 39 32 32 26 23 19 13 3 0 0 0 0 0 3 0 0 0 0
6 13 23 26 29 32 32 35 35 32 23 19 29 32 26 23 26 32 35 35 35 29 26 26 29 35 32 29 23 19 23 10 0 0 0 0 0 3 3 0 0 0 0
6 10 19 26 26 29 29 32 29 23 23 16 19 26 23 26 23 16 26 23 23 23 29 26 26 29 23 29 23 19 16 0 0 0 0 0 0 3 3 0 0 0 0
3 6 10 16 19 19 29 29 19 19 23 19 16 16 19 16 10 16 13 19 16 16 23 26 26 23 19 19 19 19 10 0 0 0 0 0 0 3 3 0 0 3 0
0 6 6 13 13 13 10 10 13 16 16 16 3 3 3 0 3 16 13 10 10 13 6 16 23 19 13 13 13 10 3 0 0 0 0 0 0 3 3 3 0 3 0
0 3 6 6 10 13 10 10 6 10 6 0 3 0 0 0 0 0 0 0 3 6 3 3 6 10 6 3 3 0 0 0 0 0 0 0 0 0 3 3 0 3 0
0 0 3 6 10 6 6 6 3 3 3 0 0 0 0 0 0 0 0 0 0 0 0 3 3 0 0 0 0 0 0 0 0 0 0 0 3 0 0 3 0 3 0
3 3 3 6 3 6 3 0 3 3 3 3 0 0 0 0 0 0 0 0 0 0 0 0 0 0 0 0 0 0 0 0 0 0 0 0 3 0 0 3 0 3 3
3 3 3 0 3 6 3 0 0 3 3 3 3 0 0 0 0 0 0 0 0 0 0 0 0 0 0 0 0 0 0 0 0 0 0 0 0 3 0 0 3 3 6
0 0 0 0 3 0 0 0 0 0 0 3 3 0 0 0 0 0 0 0 0 0 0 0 0 0 0 0 0 0 0 0 0 0 0 0 0 0 3 0 6 6 6
0 0 0 0 0 0 0 0 0 0 0 0 0 0 0 0 0 0 0 0 0 0 0 0 0 0 0 0 0 0 0 0 0 0 0 0 0 0 3 0 3 6 6
0 0 0 0 0 0 0 0 0 0 0 0 0 0 0 0 0 0 0 0 0 0 0 0 0 0 0 0 0 0 0 0 0 0 0 0 0 0 0 0 6 6 6
0 0 0 0 0 0 0 0 0 0 0 0 0 0 0 0 0 0 0 0 0 0 0 0 0 0 0 0 0 0 0 0 0 0 0 0 0 0 0 0 3 10 10
0 0 0 0 0 0 0 0 0 0 0 0 0 0 0 0 0 0 0 0 0 0 0 0 0 0 0 0 0 0 0 0 0 0 0 0 0 0 0 0 0 0 6
0 0 0 0 0 0 0 0 0 0 0 0 0 0 0 0 0 0 0 0 0 0 0 0 0 0 0 0 0 0 0 0 0 0 0 0 0 0 0 0 0 0 0
0 0 0 0 0 0 0 0 0 0 0 0 0 0 0 0 0 0 0 0 0 0 0 0 0 0 0 0 0 0 0 0 0 0 0 0 0 0 0 0 0 0 0
0 0 0 0 0 0 0 0 0 0 0 0 0 0 0 0 0 0 0 0 0 0 0 0 0 0 0 0 0 0 0 0 0 0 0 0 0 0 0 0 0 0 0
0 0 0 0 0 0 0 0 0 0 0 0 0 3 0 0 0 0 0 0 0 0 0 0 0 0 0 0 0 0 0 0 0 0 0 0 0 0 0 0 0 0 0
0 0 0 0 0 0 0 0 0 0 0 0 0 0 0 0 0 0 0 0 0 0 0 0 0 0 0 0 0 0 0 0 0 0 0 0 0 0 0 0 0 0 0
0 0 0 0 0 0 0 0 0 0 0 0 0 0 0 0 0 0 0 0 0 0 0 0 0 0 0 0 0 0 0 0 0 0 0 0 0 0 0 0 0 0 0
0 0 0 0 0 0 0 0 0 0 0 0 0 0 0 0 0 0 0 0 0 0 0 0 0 0 0 0 0 0 0 0 0 0 0 0 0 0 0 0 0 0 0
Height
5843 5844 5845 5846 5847 5848 5849 5850 5851 5852 5853 5854 5855 5856 5856 5857 5858 5858 5859 5859 5860 5860 5861 5861 5861 5861 5862 5862 5861 5861 5861 5861 5861 5860 5860 5860 5859 5859 5858 5858 5857 5857 5856
5840 5841 5841 5842 5843 5844 5845 5847 5848 5849 5850 5850 5851 5852 5853 5854 5855 5856 5856 5857 5857 5858 5858 5859 5859 5859 5859 5859 5859 5859 5859 5859 5859 5859 5858 5858 5858 5857 5857 5856 5856 5855 5854
5836 5837 5838 5839 5840 5841 5842 5843 5844 5845 5846 5847 5848 5849 5850 5851 5852 5852 5853 5854 5855 5855 5855 5856 5856 5857 5857 5857 5857 5857 5857 5857 5857 5857 5856 5856 5856 5855 5855 5854 5854 5853 5852
5831 5833 5834 5835 5836 5837 5838 5839 5840 5841 5842 5843 5844 5845 5846 5847 5848 5849 5850 5850 5851 5852 5852 5853 5853 5854 5854 5854 5854 5854 5854 5854 5854 5854 5854 5854 5853 5853 5853 5852 5851 5851 5850
5827 5828 5829 5830 5831 5832 5833 5834 5835 5837 5838 5839 5840 5841 5842 5843 5844 5845 5846 5846 5847 5848 5849 5849 5850 5850 5850 5851 5851 5851 5851 5851 5851 5851 5851 5851 5851 5850 5850 5850 5849 5848 5847
5821 5822 5823 5825 5826 5827 5828 5829 5830 5832 5833 5834 5835 5836 5837 5838 5839 5840 5842 5842 5843 5844 5844 5845 5846 5846 5846 5847 5847 5848 5848 5848 5848 5848 5848 5848 5848 5848 5847 5847 5846 5845 5844
5815 5816 5817 5818 5820 5821 5822 5823 5825 5826 5827 5828 5830 5831 5832 5833 5834 5835 5837 5838 5838 5839 5840 5841 5841 5842 5842 5843 5843 5844 5844 5844 5844 5844 5844 5844 5844 5844 5844 5844 5843 5842 5841
5809 5810 5811 5812 5813 5814 5815 5817 5818 5820 5821 5822 5824 5825 5826 5827 5829 5830 5831 5833 5834 5835 5836 5837 5837 5838 5838 5839 5839 5839 5840 5840 5840 5841 5841 5841 5841 5840 5840 5840 5839 5839 5838
5802 5803 5803 5804 5805 5807 5808 5809 5811 5813 5814 5816 5817 5818 5820 5821 5823 5824 5826 5827 5828 5829 5830 5831 5832 5833 5834 5834 5835 5835 5835 5836 5836 5836 5837 5837 5837 5836 5836 5836 5835 5835 5834
5794 5795 5795 5796 5797 5798 5800 5801 5803 5805 5806 5808 5810 5811 5813 5814 5816 5818 5819 5821 5822 5823 5824 5825 5826 5828 5828 5829 5829 5830 5830 5831 5831 5832 5832 5832 5832 5832 5832 5831 5831 5830 5829
5786 5786 5786 5787 5788 5789 5790 5792 5794 5796 5798 5800 5801 5803 5805 5807 5808 5810 5812 5814 5815 5817 5818 5819 5820 5821 5822 5823 5824 5824 5824 5826 5826 5827 5827 5827 5827 5827 5827 5827 5826 5825 5825
5777 5777 5777 5777 5778 5779 5780 5782 5784 5786 5788 5790 5792 5794 5796 5798 5800 5802 5804 5806 5808 5809 5811 5812 5813 5815 5816 5817 5818 5818 5819 5820 5820 5821 5821 5821 5821 5821 5821 5821 5821 5820 5820
5768 5767 5767 5767 5767 5768 5769 5771 5773 5776 5778 5780 5783 5785 5787 5790 5792 5794 5796 5798 5799 5801 5803 5804 5806 5808 5809 5810 5811 5812 5813 5814 5814 5815 5815 5815 5815 5815 5815 5815 5815 5814 5814
5758 5757 5757 5757 5757 5757 5758 5760 5762 5764 5767 5770 5772 5775 5777 5779 5782 5784 5787 5789 5791 5793 5795 5796 5798 5799 5801 5803 5804 5805 5806 5807 5808 5808 5808 5809 5809 5809 5809 5809 5809 5809 5808
5747 5747 5746 5746 5746 5747 5747 5748 5750 5753 5755 5758 5760 5763 5766 5768 5771 5774 5776 5779 5782 5784 5786 5787 5789 5791 5793 5794 5796 5797 5798 5799 5800 5801 5802 5802 5803 5803 5803 5803 5803 5802 5802
5737 5736 5735 5735 5735 5735 5736 5737 5739 5741 5743 5745 5748 5751 5754 5757 5760 5763 5766 5769 5771 5774 5776 5778 5780 5782 5784 5786 5787 5788 5790 5791 5792 5794 5794 5795 5796 5796 5796 5796 5796 5795 5795
5726 5725 5724 5724 5723 5723 5724 5725 5726 5727 5730 5733 5735 5738 5741 5744 5748 5751 5754 5757 5760 5762 5765 5767 5770 5772 5774 5776 5778 5779 5781 5782 5784 5785 5786 5787 5788 5788 5788 5788 5788 5788 5787
5715 5714 5712 5711 5711 5711 5711 5711 5712 5713 5716 5719 5722 5725 5728 5731 5734 5738 5741 5745 5748 5750 5753 5756 5759 5761 5763 5765 5767 5769 5771 5772 5774 5775 5777 5778 5779 5780 5780 5780 5780 5780 5780
5703 5702 5701 5699 5699 5698 5697 5697 5697 5699 5701 5704 5708 5711 5713 5716 5720 5724 5728 5731 5735 5738 5741 5744 5747 5749 5752 5754 5756 5758 5760 5762 5763 5765 5767 5768 5770 5771 5771 5772 5772 5772 5772
5692 5690 5689 5688 5686 5685 5684 5683 5683 5684 5686 5690 5693 5696 5699 5701 5705 5710 5714 5718 5721 5724 5728 5731 5734 5736 5739 5741 5743 5746 5748 5750 5752 5754 5756 5758 5759 5760 5762 5762 5763 5763 5763
5680 5679 5677 5675 5674 5673 5671 5670 5670 5671 5673 5676 5679 5683 5685 5687 5691 5695 5699 5703 5706 5710 5713 5717 5720 5723 5726 5728 5730 5733 5736 5738 5740 5742 5745 5747 5749 5750 5751 5752 5753 5754 5754
5669 5667 5665 5664 5662 5660 5658 5658 5658 5658 5661 5663 5666 5669 5672 5674 5677 5681 5685 5688 5692 5695 5699 5702 5705 5708 5711 5714 5717 5719 5723 5727 5728 5730 5733 5735 5737 5739 5740 5741 5743 5744 5744
5659 5657 5654 5653 5651 5648 5646 5646 5646 5647 5649 5651 5654 5656 5659 5661 5664 5667 5671 5674 5678 5681 5685 5688 5691 5694 5698 5701 5703 5705 5708 5712 5715 5718 5720 5723 5725 5727 5729 5731 5732 5733 5734
5649 5646 5644 5642 5640 5638 5636 5635 5636 5636 5638 5640 5641 5643 5646 5648 5651 5654 5657 5660 5664 5667 5671 5674 5677 5680 5682 5686 5689 5692 5694 5697 5701 5705 5708 5710 5712 5715 5717 5719 5721 5723 5724
5639 5636 5634 5632 5630 5628 5625 5624 5624 5625 5626 5627 5628 5630 5633 5635 5638 5641 5644 5647 5651 5654 5657 5660 5663 5665 5668 5671 5675 5678 5680 5683 5686 5689 5694 5697 5699 5701 5704 5707 5709 5711 5713
5631 5628 5626 5624 5621 5619 5616 5615 5614 5613 5613 5614 5616 5617 5620 5623 5626 5629 5632 5635 5638 5641 5644 5647 5649 5651 5654 5657 5660 5663 5666 5669 5672 5674 5678 5682 5685 5689 5691 5693 5697 5700 5701
Wind_Speed
19 19 20 20 21 21 22 22 22 22 22 21 21 21 20 20 20 19 19 18 18 17 16 15 15 14 14 13 12 12 12 11 11 10 10 9 9 9 9 9 9 10 10
21 21 21 21 22 22 23 23 23 23 24 23 23 22 22 21 21 21 21 20 20 19 19 18 17 16 16 16 15 15 14 13 13 12 12 11 11 11 11 10 11 11 12
23 24 24 24 24 24 24 24 24 25 25 25 25 24 23 23 23 23 22 22 21 21 20 20 19 19 18 18 18 17 16 15 15 14 14 13 13 13 13 12 12 13 13
26 26 26 26 26 26 26 26 26 26 26 26 26 26 25 25 25 24 24 24 23 22 22 21 21 21 20 20 19 19 18 17 17 17 16 15 15 15 14 14 14 14 14
27 28 28 28 28 28 28 28 28 28 28 28 28 27 27 27 27 26 26 26 25 25 24 23 23 22 22 22 21 21 20 19 19 19 18 17 17 16 16 16 16 15 15
29 30 31 31 31 31 31 31 30 30 30 30 30 30 29 29 28 28 28 27 27 27 26 26 25 24 24 23 23 22 22 21 21 20 20 19 19 18 18 18 18 17 17
31 32 33 33 33 34 34 33 33 32 32 32 32 32 31 31 30 30 30 29 29 29 28 27 27 26 25 25 25 24 23 22 21 21 20 20 20 20 20 19 19 19 19
33 34 35 36 36 36 37 37 36 36 35 35 34 34 34 33 33 32 31 31 30 30 29 29 28 28 27 26 26 25 25 24 23 22 22 21 21 21 21 21 21 21 21
35 35 37 38 39 39 39 39 39 39 38 37 37 37 36 36 35 34 34 33 32 32 31 30 30 29 29 28 27 27 26 26 25 24 24 23 23 23 23 23 22 22 23
36 37 38 39 41 42 42 43 42 42 41 40 40 39 39 38 38 37 36 35 35 34 33 32 31 31 31 30 29 29 28 26 26 25 25 25 25 25 25 24 24 24 24
38 39 40 41 42 43 44 45 45 44 44 43 43 42 42 41 40 39 39 38 37 36 35 35 34 33 33 32 31 31 29 29 28 27 27 26 26 26 26 26 26 26 26
39 40 41 42 43 44 45 46 46 47 46 46 46 45 44 44 43 42 41 40 40 39 38 38 36 35 35 34 33 32 31 30 30 29 29 28 28 28 27 27 28 28 28
39 41 42 43 43 44 46 46 47 47 47 47 47 47 47 46 45 45 44 43 42 42 41 40 39 38 37 36 35 34 33 32 32 31 31 30 30 29 29 28 29 29 29
39 40 41 42 43 44 45 46 47 48 48 48 48 48 48 48 47 46 46 45 44 44 43 43 41 40 39 38 37 37 36 35 34 33 33 31 31 32 31 31 31 30 30
39 40 41 41 42 43 44 46 47 48 48 49 49 49 49 48 48 48 47 46 46 45 45 45 44 43 41 40 39 38 37 36 36 35 34 33 33 32 32 32 32 32 32
39 41 41 42 43 43 45 46 47 48 49 50 50 51 51 51 50 50 50 49 48 47 47 47 45 45 44 43 42 41 40 39 38 37 37 35 35 34 34 34 34 33 33
39 41 43 43 44 44 45 46 48 49 50 51 51 51 53 53 52 52 51 51 51 50 49 48 48 46 45 45 44 43 42 42 41 40 39 38 37 36 36 36 35 35 34
40 41 42 43 44 45 45 47 48 50 51 51 52 51 53 54 54 54 53 53 52 52 51 50 49 48 48 47 46 45 45 44 43 42 41 40 39 39 38 38 37 37 37
39 40 41 42 43 44 45 46 48 49 50 51 51 51 52 53 55 55 55 55 54 54 53 52 51 51 50 50 49 48 47 47 46 45 44 43 41 41 40 39 39 39 38
38 38 40 41 43 43 44 45 46 47 49 49 50 50 51 52 54 55 56 56 56 54 54 53 52 52 52 51 51 50 49 49 48 47 46 44 43 42 42 41 40 40 39
37 37 39 40 42 43 43 44 45 46 47 48 49 50 50 50 52 54 55 55 56 55 55 54 53 54 53 52 52 52 50 50 49 48 47 46 45 44 44 43 42 41 40
36 36 38 38 38 40 41 42 42 43 45 47 48 48 49 49 51 52 53 54 56 56 56 55 54 55 54 53 52 53 52 51 50 50 49 48 47 46 45 45 43 42 41
34 35 35 36 36 37 39 39 40 41 42 45 46 47 47 48 49 50 51 52 53 55 55 55 55 55 54 53 53 52 52 51 51 50 50 50 48 48 47 45 44 43 42
33 34 34 34 34 35 37 39 39 40 41 43 45 45 46 46 47 48 49 50 51 52 53 53 54 54 54 53 53 53 52 51 51 51 51 50 49 49 48 47 45 44 43
32 31 31 32 33 34 35 36 38 39 41 42 43 44 45 46 46 47 48 49 49 50 51 52 52 53 55 54 54 54 53 52 52 52 51 50 50 50 49 48 47 46 45
29 28 29 30 31 32 33 34 36 37 39 41 43 43 43 44 45 46 47 47 48 49 50 50 50 52 53 53 53 53 52 52 52 51 51 51 50 50 51 49 48 47 45
Wind_Direction
249 249 248 248 247 247 246 247 247 247 247 248 248 249 250 251 252 252 252 252 252 253 254 256 258 259 261 265 267 268 269 272 274 274 277 280 283 288 293 296 297 299 303
251 251 250 249 249 249 248 248 249 249 248 248 249 248 249 250 252 252 253 254 254 254 256 258 259 260 261 263 266 267 269 271 273 274 274 277 280 284 289 293 296 297 300
252 251 251 251 250 251 251 250 249 250 250 250 250 250 250 250 251 251 252 254 255 255 257 259 261 262 262 264 266 266 267 269 271 272 273 274 277 280 284 289 294 297 299
252 252 251 251 251 252 252 252 250 250 250 251 251 251 251 251 251 251 252 252 254 255 258 260 261 262 264 264 267 269 270 271 272 271 271 272 274 277 280 285 291 295 298
254 253 252 251 251 251 252 252 252 251 250 251 252 252 252 252 252 253 253 253 254 255 257 259 261 262 265 266 267 268 270 271 273 273 270 271 272 275 278 283 287 291 295
255 254 254 253 253 252 252 252 252 252 252 252 252 253 252 252 253 254 254 255 255 255 256 258 260 262 264 266 267 268 269 271 273 274 273 271 271 274 277 281 285 288 291
256 255 255 254 254 254 254 254 253 253 253 253 253 253 253 253 253 253 255 256 258 258 257 259 260 262 263 265 266 267 268 270 272 274 274 273 271 272 275 279 282 285 288
258 258 256 256 255 255 254 254 253 253 253 254 253 253 253 253 253 253 254 256 257 259 259 260 261 263 264 265 268 268 268 269 270 271 272 273 273 273 274 277 280 283 285
261 260 259 258 256 255 255 254 254 254 253 253 254 253 253 253 254 254 254 255 257 258 259 260 261 263 265 266 268 269 270 270 271 271 271 272 273 274 275 277 279 281 284
263 262 262 260 258 256 255 255 255 254 253 253 253 254 254 254 254 255 255 256 256 258 259 260 261 262 263 265 267 268 269 271 272 272 271 272 272 273 275 277 278 280 284
264 264 263 262 260 258 256 256 255 255 254 254 254 254 254 254 255 256 256 257 256 257 259 260 259 261 262 264 266 268 268 270 271 271 271 271 271 272 274 276 277 279 282
266 265 264 263 262 260 258 256 255 255 255 254 254 254 254 254 255 255 256 257 257 257 258 259 260 260 261 262 264 266 268 270 270 270 270 270 270 271 273 275 277 278 281
267 267 266 265 263 261 259 257 255 255 254 254 254 254 254 254 254 255 255 256 257 258 258 259 260 260 261 262 263 264 266 268 270 270 270 270 271 270 272 275 277 279 280
268 268 267 265 264 261 259 258 256 255 255 254 253 253 254 253 253 255 255 256 257 258 259 259 260 261 261 261 263 264 265 267 268 269 269 270 272 272 272 274 276 279 281
269 268 268 267 265 263 260 258 257 256 255 254 254 254 254 253 253 254 254 255 257 258 259 259 259 261 261 261 262 263 264 266 268 269 271 271 272 272 273 275 275 276 279
271 270 269 268 266 265 262 260 258 258 256 255 254 254 253 254 253 254 254 255 256 256 257 258 258 259 260 261 261 262 263 265 267 269 269 270 270 271 272 274 275 276 278
273 272 271 269 267 266 264 262 260 259 257 255 255 254 254 254 253 253 253 254 255 255 256 257 258 258 259 260 260 261 263 264 265 267 268 269 270 270 270 273 275 275 277
274 274 274 272 269 267 266 264 263 260 258 256 255 255 255 254 253 253 254 255 255 255 256 257 257 257 259 260 260 261 262 263 264 265 267 269 269 269 269 270 273 274 275
276 276 276 273 271 270 269 267 264 261 259 256 255 256 256 254 253 252 253 254 255 255 256 256 257 257 258 260 260 260 261 262 263 264 266 267 268 268 269 269 271 272 273
278 278 277 275 273 271 270 268 265 262 260 257 257 257 256 254 253 252 253 253 255 255 256 256 257 258 258 259 260 260 260 260 261 263 264 264 266 266 267 268 271 271 272
281 280 279 278 275 273 272 270 267 263 259 258 257 256 256 255 253 253 253 254 254 256 257 257 257 258 258 259 259 259 260 260 260 261 262 263 264 265 266 266 268 269 270
284 283 281 280 279 275 272 270 267 264 260 258 258 256 256 257 254 253 253 254 255 256 257 257 258 258 258 258 259 259 259 260 260 259 261 262 263 264 266 266 266 268 268
287 285 283 281 280 278 273 269 267 265 262 260 260 257 257 256 255 254 254 254 255 257 257 257 258 258 258 258 258 260 260 260 259 260 260 261 262 263 263 264 265 267 268
290 288 284 283 282 280 275 270 268 267 265 262 261 259 257 256 256 256 256 256 256 257 257 258 259 259 259 258 259 260 260 261 261 260 260 260 261 261 262 262 263 265 267
294 291 286 284 284 283 280 274 271 270 266 263 262 260 258 257 256 256 257 257 257 258 258 259 259 259 260 259 259 259 259 260 261 262 260 259 260 260 260 261 262 264 266
297 294 291 289 287 285 283 279 275 274 272 267 264 261 260 259 257 256 257 257 256 258 260 260 261 261 260 259 259 259 259 260 261 262 262 260 259 259 260 260 260 263 264